Location: Unspecified
(0.0000°N, 0.0000°E)
Time: 19:00:15
(UTC+00:00)

deb Explorer IX - Pass Details

Date: 24 November 2019
Orbit: 545 x 1105 km, 38.8° (Epoch: 08 December)

Event Time Altitude Azimuth Distance (km) Brightness Sun altitude
Rises 07:35:25 0° 302° (WNW) 2,891 ? 25.4°
Reaches altitude 10° 07:37:53 10° 296° (WNW) 1,921 ? 25.9°
Maximum altitude 07:42:05 48° 222° (SW) 736 ? 26.9°
Drops below altitude 10° 07:46:02 10° 147° (SSE) 1,807 ? 27.8°
Sets 07:48:18 0° 141° (SE) 2,698 ? 28.3°
